Weather History for Alpena, MI

Change the Weather History Date:

Wednesday, February 6, 2013

  Actual Average Record
Temperature  
Mean Temperature 9 °F 19 °F  
Max Temperature 24 °F 28 °F 46 °F (2005)
Min Temperature -7 °F 10 °F -16 °F (1962)
Degree Days  
Heating Degree Days 56 46  
Month to date heating degree days 327 276  
Since 1 July heating degree days 4394 4758  
Moisture  
Dew Point 7 °F    
Average Humidity 71    
Maximum Humidity 91    
Minimum Humidity 50    
Precipitation  
Precipitation 0.02 in 0.05 in 0.64 in (1924)
Month to date precipitation 0.11 0.26  
Year to date precipitation 2.88 1.92  
Snow  
Snow 0.00 in 0.70 in 4.60 in (1924)
Month to date snowfall 1.3 3.9  
Since 1 July snowfall 22.3 52.5  
Snow Depth 3.00 in    
Sea Level Pressure  
Sea Level Pressure 30.21 in    
Wind  
Wind Speed 3 mph (WSW)    
Max Wind Speed 13 mph    
Max Gust Speed 20 mph    
Visibility 8 miles    
Events Snow    
T = Trace of Precipitation, MM = Missing Value Source: NWS Daily Summary

Daily Weather History Graph

Daily Weather History Graph

Search for Another Location

Airport:

Trip Planner

Search our weather history database for the weather conditions in past years. The results will help you decide how hot, cold, wet, or windy it might be!

Date:

Astronomy

Feb. 06, 2013 Rise Set
Actual Time 7:47 AM EST 5:49 PM EST
Civil Twilight 7:16 AM EST 6:20 PM EST
Nautical Twilight 6:41 AM EST 6:55 PM EST
Astronomical Twilight 6:07 AM EST 7:29 PM EST
Moon 4:35 AM EST (2/6) 2:01 PM EST (2/6)
Length of Visible Light 11h 03m
Length of Day
10h 01m
Waning Crescent, 17% of the Moon is Illuminated
Feb 6
Waning Crescent
Feb 10
New
Feb 17
First Quarter
Feb 25
Full
Mar 4
Last Quarter

Hourly Weather History & Observations

Time (EST) Temp. Windchill Dew Point Humidity Pressure Visibility Wind Dir Wind Speed Gust Speed Precip Events Conditions
12:54 AM 15.1 °F 4.2 °F 9.0 °F 77% 29.99 in 10.0 mi WNW 8.1 mph - N/A   Scattered Clouds
1:54 AM 14.0 °F 2.9 °F 7.0 °F 74% 30.02 in 10.0 mi WNW 8.1 mph - N/A   Clear
2:54 AM 12.0 °F 1.5 °F 6.1 °F 77% 30.06 in 10.0 mi West 6.9 mph - N/A   Clear
3:54 AM 10.0 °F 0.4 °F 3.9 °F 76% 30.09 in 10.0 mi West 5.8 mph - N/A   Clear
4:54 AM 10.0 °F 3.6 °F 3.9 °F 76% 30.12 in 7.0 mi WNW 3.5 mph - N/A   Mostly Cloudy
5:24 AM 8.6 °F 2.0 °F 3.2 °F 79% 30.09 in 10.0 mi WNW 3.5 mph - 0.00 in   Scattered Clouds
5:54 AM -0.0 °F - -2.9 °F 88% 30.16 in 10.0 mi Calm Calm - 0.00 in   Clear
6:50 AM -2.2 °F - -7.6 °F 78% 30.13 in 2.5 mi Calm Calm - N/A   Haze
6:54 AM -0.0 °F - -5.1 °F 79% 30.18 in 9.0 mi Calm Calm - N/A   Clear
7:54 AM -0.0 °F - -4.0 °F 83% 30.22 in 10.0 mi Calm Calm - N/A   Clear
8:01 AM -7.6 °F - -9.4 °F 92% 30.17 in 10.0 mi Calm Calm - N/A   Partly Cloudy
8:54 AM -0.0 °F - -2.9 °F 88% 30.25 in 10.0 mi Calm Calm - N/A   Partly Cloudy
9:54 AM 7.0 °F - 3.0 °F 84% 30.26 in 10.0 mi Calm Calm - N/A   Scattered Clouds
10:54 AM 16.0 °F 10.4 °F 8.1 °F 71% 30.25 in 10.0 mi West 3.5 mph - N/A   Scattered Clouds
11:54 AM 17.1 °F 6.6 °F 6.1 °F 62% 30.27 in 10.0 mi SSW 8.1 mph - N/A   Mostly Cloudy
12:39 PM 19.4 °F 10.4 °F 6.8 °F 58% 30.23 in 10.0 mi West 6.9 mph - N/A   Mostly Cloudy
12:54 PM 19.0 °F 12.3 °F 7.0 °F 59% 30.27 in 10.0 mi SW 4.6 mph - N/A   Mostly Cloudy
1:03 PM 19.4 °F 12.8 °F 6.8 °F 58% 30.23 in 10.0 mi WSW 4.6 mph - N/A   Mostly Cloudy
1:54 PM 19.9 °F 10.1 °F 8.1 °F 60% 30.27 in 10.0 mi SSW 8.1 mph - N/A   Mostly Cloudy
2:54 PM 21.9 °F 14.5 °F 9.0 °F 58% 30.25 in 10.0 mi SSW 5.8 mph - N/A   Scattered Clouds
3:54 PM 23.0 °F 15.8 °F 10.9 °F 60% 30.24 in 10.0 mi SE 5.8 mph - N/A   Scattered Clouds
4:54 PM 24.1 °F - 9.0 °F 53% 30.25 in 10.0 mi Calm Calm - N/A   Partly Cloudy
5:54 PM 18.0 °F 11.1 °F 9.0 °F 68% 30.28 in 10.0 mi ESE 4.6 mph - N/A   Clear
6:54 PM 15.1 °F 7.7 °F 9.0 °F 77% 30.29 in 10.0 mi SE 4.6 mph - N/A   Overcast
7:54 PM 18.0 °F - 12.0 °F 78% 30.28 in 10.0 mi Calm Calm - N/A   Overcast
8:54 PM 18.0 °F - 12.9 °F 81% 30.28 in 10.0 mi Calm Calm - N/A   Overcast
9:54 PM 19.9 °F - 14.0 °F 78% 30.29 in 10.0 mi Calm Calm - N/A   Overcast
10:31 PM 19.4 °F - 15.8 °F 86% 30.24 in 2.0 mi Calm Calm - 0.00 in Snow Light Snow
10:38 PM 19.4 °F - 15.8 °F 86% 30.24 in 2.0 mi Calm Calm - 0.00 in Snow Light Snow
10:54 PM 19.9 °F - 16.0 °F 85% 30.28 in 2.0 mi Calm Calm - 0.01 in Snow Light Snow
11:02 PM 19.4 °F - 17.6 °F 93% 30.23 in 1.8 mi Calm Calm - 0.00 in Snow Light Snow
11:23 PM 21.2 °F - 17.6 °F 86% 30.23 in 2.0 mi Calm Calm - 0.00 in Snow Light Snow
11:35 PM 21.2 °F - 17.6 °F 86% 30.23 in 3.0 mi Calm Calm - 0.01 in Snow Light Snow
11:43 PM 21.2 °F - 17.6 °F 86% 30.23 in 2.5 mi Calm Calm - 0.01 in Snow Light Snow
11:54 PM 21.0 °F - 18.0 °F 88% 30.27 in 2.0 mi Calm Calm - 0.01 in Snow Light Snow